This is the latest recevied weather packets stored in our database for station/object KF4WSW-13. If no packets are shown the sender has not sent any weather packets the latest 10 day(s).
| Time | Temp. | Humidity | Pressure | Rain* | Wind** | Luminosity | Snow |
|---|---|---|---|---|---|---|---|
| 1777907685 | 24.44° C | 60% | 1015.7 hPa | 0 mm | - | 682 W/m² | - |
| 1777907381 | 23.89° C | 60% | 1015.8 hPa | 0 mm | - | 671 W/m² | - |
| 1777907077 | 23.89° C | 59% | 1015.8 hPa | 0 mm | - | 545 W/m² | - |
| 1777906775 | 23.89° C | 59% | 1015.6 hPa | 0 mm | - | 650 W/m² | - |
| 1777906472 | 23.89° C | 62% | 1015.6 hPa | 0 mm | - | 631 W/m² | - |
| 1777906168 | 23.33° C | 63% | 1015.5 hPa | 0 mm | - | 620 W/m² | - |
| 1777905865 | 23.89° C | 64% | 1015.5 hPa | 0 mm | - | 609 W/m² | - |
| 1777905562 | 23.33° C | 63% | 1015.5 hPa | 0 mm | - | 596 W/m² | - |
| 1777905259 | 23.33° C | 64% | 1015.2 hPa | 0 mm | - | 584 W/m² | - |
| 1777904956 | 23.33° C | 63% | 1015.6 hPa | 0 mm | - | 569 W/m² | - |
| 1777904654 | 23.33° C | 65% | 1015.5 hPa | 0 mm | - | 557 W/m² | - |
| 1777904350 | 23.33° C | 64% | 1015.5 hPa | 0 mm | - | 542 W/m² | - |
| 1777904047 | 23.33° C | 64% | 1015.2 hPa | 0 mm | - | 525 W/m² | - |
| 1777903744 | 23.33° C | 67% | 1015.5 hPa | 0 mm | - | 515 W/m² | - |
| 1777903440 | 23.33° C | 67% | 1015.5 hPa | 0 mm | - | 501 W/m² | - |
| 1777903137 | 22.78° C | 67% | 1015.5 hPa | 0 mm | - | 486 W/m² | - |
| 1777902833 | 22.22° C | 66% | 1015.7 hPa | 0 mm | - | 470 W/m² | - |
| 1777902531 | 22.22° C | 68% | 1015.5 hPa | 0 mm | - | 455 W/m² | - |
| 1777902227 | 22.22° C | 67% | 1015.5 hPa | 0 mm | - | 441 W/m² | - |
| 1777901925 | 22.22° C | 69% | 1015.4 hPa | 0 mm | - | 426 W/m² | - |
| 1777901623 | 22.78° C | 68% | 1015.4 hPa | 0 mm | - | 410 W/m² | - |
| 1777901320 | 22.22° C | 68% | 1015.4 hPa | 0 mm | - | 394 W/m² | - |
| 1777901017 | 22.22° C | 68% | 1015.5 hPa | 0 mm | - | 377 W/m² | - |
| 1777900715 | 22.22° C | 70% | 1015.1 hPa | 0 mm | - | 360 W/m² | - |
| 1777900412 | 21.67° C | 71% | 1015.2 hPa | 0 mm | - | 349 W/m² | - |
* Rain latest hour (hover to see other rain measurements)
** Current wind speed in m/s (hover to see current wind gust speed)